Location: Ca�n Batista
(41.4099°N, 1.7752°E)
Time: 13:26:45
(UTC+00:00)

Meteor 1-13 Rocket - Pass Details

Date: 03 March 2021
Orbit: 830 x 913 km, 81.3° (Epoch: 21 April)

Event Time Altitude Azimuth Distance (km) Brightness Sun altitude
Rises 19:36:54 0° 351° (N) 3,554 7.7 -21.5°
Reaches altitude 10° 19:39:24 10° 353° (N) 2,604 6.9 -22.0°
Maximum altitude 19:45:22 78° 80° (E) 925 4.2 -23.1°
Enters shadow 19:48:28 29° 163° (SSE) 1,567 5.3 -23.6°
